[[{"header":{"parameterUnit":"m.s-1","parameterCategory":1,"la1":30.2991,"la2":30.254,"lo1":-89.0895,"lo2":-89.0444,"dy":0.0017,"dx":0.0017,"nx":28,"ny":28,"refTime":"2025-03-13T03:00:00:Z","depth":0,"parameterNumber":2,"parameterNumberName":"U-component_of_WINDS"},"data":[0,0,0,0,0,0,0,0,0,0,0,0,0,0,0,0,0,0,0,0,0,0,0,0,0,0,0,0,0,0,0,0,0,0,0,0,0,0,0,0,0,0,0,0,0,0,0,0,0,0,0,0,0,0,0,0,0,0,-1.793,-1.793,0,-1.7979,-1.798,-1.798,-1.7991,-1.799,-1.799,-1.799,-1.8041,-1.8043,-1.8045,0,0,0,0,0,0,0,0,0,0,0,0,0,-1.7847,-1.7848,-1.793,-1.793,-1.7931,-1.7979,-1.798,-1.798,-1.7991,-1.799,-1.799,-1.7989,-1.8041,-1.8043,-1.8045,0,0,0,0,0,0,0,0,0,0,0,0,0,-1.7888,-1.7849,-1.793,-1.7942,-1.7944,-1.7979,-1.798,-1.7981,-1.7991,-1.799,-1.799,-1.7989,-1.804,-1.8043,-1.8045,-1.8072,0,0,-1.8053,-1.8054,0,0,0,0,0,0,0,0,-1.7886,-1.7891,-1.794,-1.7941,-1.7943,-1.7978,-1.7969,-1.8011,-1.7991,-1.7973,-1.799,-1.7989,-1.8021,-1.8025,-1.8035,-1.8074,-1.8077,-1.8053,-1.8055,-1.8056,-1.8057,0,0,0,0,0,0,0,-1.7883,-1.7889,-1.7949,-1.794,-1.7942,-1.7946,-1.7951,-1.7977,-1.7999,-1.7974,-1.7975,-1.7981,-1.8022,-1.8033,-1.8037,-1.8077,-1.8053,-1.8055,-1.8057,-1.8058,-1.8141,-1.8142,0,0,0,0,0,0,-1.7878,-1.7887,-1.7948,-1.7951,-1.7912,-1.7948,-1.7953,-1.7967,-1.7999,-1.8003,-1.7981,-1.7981,-1.8029,-1.8034,-1.8039,-1.8072,-1.8056,-1.8058,-1.806,-1.8141,-1.8142,-1.8142,0,0,0,0,0,0,-1.7876,-1.7883,-1.7946,-1.7919,-1.7927,-1.795,-1.7965,-1.7969,-1.798,-1.8004,-1.8008,-1.7989,-1.8029,-1.8035,-1.8064,-1.8074,-1.8059,-1.8062,-1.814,-1.8141,-1.8142,-1.8139,0,0,0,0,0,0,-1.7873,-1.7882,-1.7892,-1.7919,-1.7929,-1.7969,-1.7966,-1.797,-1.7984,-1.7984,-1.8012,-1.8016,-1.8029,-1.806,-1.8066,-1.8077,-1.8064,-1.8139,-1.814,-1.8142,-1.8138,-1.814,-1.8141,0,0,0,0,0,-1.787,-1.789,-1.7893,-1.79,-1.7941,-1.797,-1.7975,-1.7989,-1.7985,-1.7995,-1.8011,-1.8015,-1.8072,-1.8063,-1.807,-1.8082,-1.8138,-1.814,-1.8141,-1.8137,-1.8139,-1.8141,0,0,0,0,0,0,-1.7864,-1.7893,-1.7897,-1.7926,-1.7945,-1.7972,-1.7985,-1.799,-1.8012,-1.8011,-1.8027,-1.8034,-1.8061,-1.8075,-1.8064,-1.811,-1.8105,-1.8108,-1.81,-1.8102,-1.8103,-1.8099,-1.8066,0,0,0,0,0,-1.7866,-1.7886,-1.7911,-1.7934,-1.7943,-1.7963,-1.7975,-1.7984,-1.8005,-1.8014,-1.8031,-1.8052,-1.8075,-1.8089,-1.8111,-1.8141,-1.8147,-1.8153,-1.8154,-1.8155,-1.8157,-1.8174,-1.8176,-1.8147,-1.8147,-1.8147,0,0,-1.787,-1.7888,-1.79,-1.7933,-1.7949,-1.797,-1.7969,-1.7992,-1.8007,-1.8017,-1.8045,-1.8059,-1.8083,-1.8112,-1.8126,-1.8124,-1.8167,-1.8157,-1.8158,-1.8159,-1.8176,-1.8178,-1.8181,-1.8148,-1.8148,-1.8148,0,0,-1.7887,-1.7904,-1.7924,-1.794,-1.7965,-1.7978,-1.7983,-1.8009,-1.8018,-1.8046,-1.8054,-1.8074,-1.8112,-1.8129,-1.8142,-1.8168,-1.8172,-1.8174,-1.8181,-1.8197,-1.82,-1.8202,-1.821,-1.8213,-1.8177,-1.8177,-1.8177,0,-1.7889,-1.792,-1.7934,-1.7956,-1.797,-1.798,-1.8001,-1.8017,-1.8047,-1.8057,-1.8055,-1.8103,-1.812,-1.8153,-1.8159,-1.817,-1.8177,-1.8171,-1.8198,-1.82,-1.8203,-1.8211,-1.8214,-1.8177,-1.8177,-1.8177,-1.8177,0,-1.7921,-1.7943,-1.7957,-1.7985,-1.8001,-1.8023,-1.804,-1.8055,-1.8063,-1.8076,-1.8105,-1.8126,-1.8152,-1.8161,-1.8169,-1.8196,-1.8194,-1.8195,-1.819,-1.8205,-1.8213,-1.8216,-1.8177,-1.8177,-1.8177,-1.8177,0,0,-1.7935,-1.7972,-1.7976,-1.7989,-1.8017,-1.8035,-1.8057,-1.8082,-1.8094,-1.8116,-1.8135,-1.8167,-1.8168,-1.8184,-1.8194,-1.8208,-1.8226,-1.8207,-1.8208,-1.8209,-1.8257,-1.8255,-1.8258,-1.823,-1.8231,-1.8231,-1.8254,0,-1.7956,-1.7995,-1.8008,-1.8041,-1.8061,-1.8071,-1.809,-1.811,-1.8123,-1.8143,-1.8158,-1.818,-1.818,-1.819,-1.8204,-1.8221,-1.8236,-1.8219,-1.8248,-1.8249,-1.824,-1.8263,-1.8261,-1.8282,-1.8258,-1.8258,-1.8258,0,-1.7985,-1.8006,-1.804,-1.8065,-1.8074,-1.8091,-1.8116,-1.8134,-1.8157,-1.8166,-1.8183,-1.8192,-1.8217,-1.8212,-1.8245,-1.8234,-1.8247,-1.8257,-1.8258,-1.826,-1.8254,-1.8265,-1.8289,-1.8291,-1.8264,-1.8263,-1.8263,0,-1.7991,-1.8028,-1.8053,-1.8064,-1.8094,-1.8106,-1.8119,-1.8141,-1.8156,-1.8178,-1.8187,-1.8212,-1.8225,-1.8245,-1.826,-1.8255,-1.8293,-1.8289,-1.8301,-1.83,-1.8307,-1.8306,-1.8332,-1.8317,-1.8317,-1.8317,-1.8317,0,-1.8012,-1.8032,-1.8056,-1.8071,-1.8094,-1.811,-1.8133,-1.8147,-1.8167,-1.8186,-1.8197,-1.8214,-1.8234,-1.8255,-1.8267,-1.8293,-1.83,-1.8307,-1.831,-1.8306,-1.8305,-1.8314,-1.8312,-1.8317,-1.8317,-1.8317,-1.8317,0,-1.8022,-1.8039,-1.8066,-1.8093,-1.81,-1.8116,-1.8139,-1.8155,-1.8169,-1.8192,-1.8199,-1.8221,-1.8246,-1.8264,-1.8296,-1.8304,-1.8332,-1.8335,-1.8324,-1.8325,-1.8335,-1.8334,-1.8367,-1.8372,-1.8354,-1.8354,-1.8354,0,-1.8034,-1.805,-1.8078,-1.8091,-1.8104,-1.8125,-1.8139,-1.8156,-1.8171,-1.8198,-1.8211,-1.8236,-1.8257,-1.8296,-1.8315,-1.834,-1.8343,-1.8354,-1.8347,-1.8342,-1.8343,-1.8341,-1.8343,-1.8354,-1.8354,-1.8354,-1.8354,0,-1.8053,-1.806,-1.8081,-1.8104,-1.8121,-1.814,-1.816,-1.817,-1.8191,-1.8207,-1.8232,-1.8248,-1.8281,-1.8306,-1.8332,-1.8347,-1.8354,-1.8356,-1.836,-1.8355,-1.8348,-1.8351,-1.8325,-1.8355,-1.8355,-1.8355,-1.8355,-1.8355,-1.8064,-1.8078,-1.81,-1.8123,-1.8139,-1.8157,-1.8173,-1.8189,-1.821,-1.8237,-1.8246,-1.8271,-1.8294,-1.8331,-1.8346,-1.8367,-1.8366,-1.8372,-1.8373,-1.8374,-1.8374,-1.8345,-1.8372,-1.8372,-1.8372,-1.8372,-1.8372,0,-1.8083,-1.8098,-1.8118,-1.8145,-1.8162,-1.8168,-1.819,-1.8204,-1.8226,-1.8247,-1.8267,-1.8296,-1.832,-1.8342,-1.8367,-1.838,-1.8384,-1.8386,-1.8385,-1.8388,-1.8373,-1.8367,-1.8382,-1.8382,-1.8382,-1.8382,-1.8382,-1.8382,-1.8095,-1.8119,-1.8129,-1.8162,-1.8177,-1.8202,-1.8214,-1.8231,-1.8247,-1.8279,-1.8299,-1.8312,-1.8333,-1.8361,-1.8383,-1.8389,-1.8398,-1.8399,-1.8405,-1.8391,-1.8389,-1.8388,-1.8382,-1.8401,-1.8401,-1.8419,-1.8419,-1.8419]},{"header":{"parameterUnit":"m.s-1","parameterCategory":1,"la1":30.2991,"la2":30.254,"lo1":-89.0895,"lo2":-89.0444,"dy":0.0017,"dx":0.0017,"nx":28,"ny":28,"refTime":"2025-03-13T03:00:00:Z","depth":0,"parameterNumber":3,"parameterNumberName":"V-component_of_WINDS"},"data":[0,0,0,0,0,0,0,0,0,0,0,0,0,0,0,0,0,0,0,0,0,0,0,0,0,0,0,0,0,0,0,0,0,0,0,0,0,0,0,0,0,0,0,0,0,0,0,0,0,0,0,0,0,0,0,0,0,0,2.5935,2.5936,0,2.6015,2.6016,2.6017,2.6013,2.6012,2.6011,2.601,2.6092,2.6095,2.6098,0,0,0,0,0,0,0,0,0,0,0,0,0,2.578,2.5783,2.5935,2.5936,2.5937,2.6015,2.6016,2.6017,2.6014,2.6012,2.6011,2.601,2.609,2.6094,2.6098,0,0,0,0,0,0,0,0,0,0,0,0,0,2.5852,2.5784,2.5935,2.5945,2.5947,2.6015,2.6016,2.6017,2.6014,2.6012,2.601,2.6009,2.6089,2.6094,2.6099,2.6162,0,0,2.6113,2.6115,0,0,0,0,0,0,0,0,2.5848,2.5858,2.5942,2.5944,2.5946,2.6002,2.5991,2.6066,2.6014,2.5988,2.601,2.6008,2.6063,2.607,2.6089,2.6166,2.6169,2.6114,2.6117,2.6119,2.612,0,0,0,0,0,0,0,2.5843,2.5855,2.5967,2.5944,2.5946,2.5945,2.5954,2.6005,2.6034,2.599,2.599,2.6,2.6064,2.6084,2.6091,2.6171,2.6114,2.6118,2.6121,2.6123,2.6304,2.6306,0,0,0,0,0,0,2.5836,2.585,2.5964,2.5969,2.5892,2.5949,2.5959,2.5986,2.6034,2.6039,2.6001,2.5999,2.6077,2.6085,2.6093,2.6172,2.6119,2.6123,2.6126,2.6302,2.6305,2.6307,0,0,0,0,0,0,2.5833,2.5846,2.5961,2.591,2.5924,2.5954,2.5985,2.5989,2.6009,2.6042,2.6047,2.6017,2.6076,2.6087,2.6145,2.6174,2.6125,2.613,2.63,2.6303,2.6306,2.6328,0,0,0,0,0,0,2.5828,2.5845,2.587,2.591,2.5927,2.6012,2.5986,2.5991,2.6017,2.6016,2.6058,2.6063,2.6075,2.6138,2.615,2.618,2.6134,2.6298,2.6301,2.6305,2.6325,2.6331,2.6337,0,0,0,0,0,2.5823,2.5873,2.5871,2.5885,2.5959,2.6013,2.6023,2.6036,2.6019,2.6045,2.6066,2.6062,2.6169,2.6144,2.6157,2.619,2.6296,2.63,2.6305,2.6322,2.633,2.6337,0,0,0,0,0,0,2.5835,2.5878,2.5877,2.5941,2.5974,2.6013,2.6045,2.6044,2.6082,2.6079,2.6093,2.6103,2.6162,2.6181,2.6153,2.6254,2.623,2.6237,2.6239,2.6247,2.6253,2.6247,2.6138,0,0,0,0,0,2.5845,2.5886,2.5922,2.5975,2.5991,2.6015,2.604,2.6047,2.6081,2.6095,2.612,2.6153,2.6194,2.6221,2.6261,2.6327,2.6336,2.6356,2.6362,2.6366,2.6373,2.641,2.6419,2.6321,2.6321,2.6321,0,0,2.5867,2.5895,2.5921,2.5978,2.6004,2.6047,2.6027,2.6072,2.6104,2.6102,2.6159,2.6178,2.6216,2.6279,2.6308,2.6297,2.6402,2.6372,2.6375,2.6379,2.6415,2.6424,2.6432,2.6324,2.6323,2.6323,0,0,2.5928,2.5954,2.6001,2.6027,2.6067,2.6082,2.6093,2.6132,2.6146,2.6203,2.6202,2.6239,2.631,2.6337,2.636,2.6431,2.6429,2.6443,2.6475,2.6511,2.6519,2.6525,2.6552,2.6561,2.6449,2.6449,2.6449,0,2.595,2.6014,2.6026,2.6072,2.6097,2.6097,2.6145,2.617,2.622,2.6238,2.6225,2.6314,2.6339,2.6408,2.6425,2.6444,2.6458,2.6439,2.6516,2.6523,2.653,2.6555,2.6565,2.6451,2.6451,2.6451,2.645,0,2.6039,2.6083,2.6117,2.6166,2.6195,2.6242,2.6261,2.6289,2.6293,2.631,2.6368,2.6399,2.6445,2.6461,2.6466,2.6531,2.6523,2.6513,2.649,2.6541,2.6565,2.6574,2.6453,2.6453,2.6452,2.6452,0,0,2.6113,2.6166,2.6179,2.6201,2.6243,2.6278,2.6324,2.6369,2.6393,2.6427,2.6467,2.6527,2.6517,2.6544,2.6551,2.6582,2.6637,2.6568,2.6569,2.6581,2.6712,2.672,2.6731,2.6635,2.6637,2.6638,2.6709,0,2.6179,2.6262,2.6274,2.6347,2.6388,2.6388,2.6428,2.6459,2.6475,2.6512,2.653,2.6573,2.6557,2.6573,2.6603,2.6624,2.6664,2.6619,2.6673,2.6675,2.6665,2.6743,2.6752,2.6818,2.6718,2.672,2.6721,0,2.6269,2.6305,2.6383,2.642,2.6437,2.6474,2.6516,2.6551,2.6585,2.6595,2.6624,2.6627,2.6676,2.6649,2.6716,2.6686,2.6708,2.6722,2.6724,2.6731,2.6702,2.6753,2.6838,2.6849,2.6735,2.6734,2.6733,0,2.6316,2.6384,2.6439,2.6458,2.6502,2.6528,2.6547,2.658,2.6606,2.6643,2.666,2.6701,2.6724,2.6756,2.6771,2.675,2.6837,2.6812,2.6847,2.6847,2.6867,2.6866,2.6958,2.6879,2.6879,2.6879,2.6879,0,2.639,2.6438,2.6461,2.6495,2.6549,2.6561,2.6613,2.6632,2.6661,2.6699,2.67,2.6736,2.6752,2.679,2.6801,2.6856,2.6866,2.6875,2.6878,2.6876,2.6875,2.6892,2.6889,2.6881,2.6881,2.688,2.688,0,2.6453,2.647,2.653,2.6567,2.6577,2.6615,2.6646,2.6679,2.6694,2.6742,2.6754,2.6779,2.6823,2.6841,2.6895,2.6903,2.6966,2.6964,2.6954,2.6955,2.699,2.6987,2.7098,2.7114,2.7023,2.7024,2.7024,0,2.65,2.6536,2.6576,2.6602,2.6622,2.6663,2.6689,2.6702,2.673,2.6771,2.68,2.6844,2.6881,2.6952,2.6975,2.7016,2.7017,2.7053,2.7023,2.702,2.7019,2.7017,2.7021,2.7059,2.706,2.706,2.7061,0,2.6582,2.6588,2.6627,2.6668,2.6699,2.6732,2.6764,2.6785,2.6803,2.6834,2.6879,2.6907,2.6963,2.7007,2.705,2.707,2.7069,2.707,2.708,2.708,2.7073,2.7078,2.6971,2.7068,2.7067,2.7067,2.7066,2.7066,2.6639,2.6672,2.6705,2.6747,2.6773,2.6802,2.6835,2.6855,2.6893,2.6939,2.6944,2.6993,2.7026,2.7083,2.7105,2.7144,2.7134,2.7149,2.7154,2.7158,2.7161,2.7065,2.7151,2.7151,2.7151,2.7151,2.7151,0,2.6723,2.6744,2.6782,2.6827,2.686,2.6855,2.689,2.6918,2.6962,2.6992,2.7028,2.708,2.7123,2.7148,2.7191,2.7217,2.7218,2.7228,2.7228,2.7232,2.7166,2.7153,2.7227,2.7227,2.7227,2.7227,2.7227,2.7227,2.6771,2.6826,2.6836,2.6903,2.6924,2.6972,2.6992,2.702,2.7044,2.7103,2.7138,2.7154,2.7183,2.7228,2.7267,2.7273,2.7289,2.7301,2.7307,2.7245,2.7237,2.7229,2.7218,2.7304,2.7304,2.737,2.7371,2.7371]}]]